Location: Helion Bumpstead
(52.0500°N, 0.4000°E)
Time: 08:31:28
(UTC+00:00)

BREEZE-M DEB (TANK) - Pass Details

Date: 15 November 2025
Orbit: 357 x 13413 km, 46.0° (Epoch: 14 December)

Event Time Altitude Azimuth Distance (km) Brightness Sun altitude
Exits shadow 05:39:35 - 207° (SSW) 1,833 4.8 -15.0°
Reaches altitude 10° 05:40:46 10° 191° (S) 1,433 4.5 -14.9°
Maximum altitude 05:42:47 18° 143° (SE) 1,279 4.8 -14.6°
Drops below altitude 10° 05:45:50 10° 99° (E) 2,275 6.9 -14.1°
Sets 05:50:23 0° 82° (E) 4,338 8.3 -13.4°
